User: anonymous   Login
Location: Chillicothe
(39.7950°N, 93.5520°W)
Time: 06:58:28
(UTC-06:00)
Language:

BEESAT - Orbit

View from above orbital plane
View from above orbital plane
View from above satellite
View from above satellite

Ground track
Ground track

The orbit data is extracted from the following two-line orbital elements,

1 35933U 09051C   19325.14341553  .00000113  00000-0  36461-4 0  9993
2 35933  98.6009 137.6324 0006790  66.6701 293.5209 14.56414511539516
Epoch (UTC): 21 November 2019 03:26:31
Eccentricity: 0.0006790
inclination: 98.6009°
perigee height: 700 km
apogee height: 709 km
right ascension of ascending node: 137.6324°
argument of perigee: 66.6701°
revolutions per day: 14.56414511
mean anomaly at epoch: 293.5209°
orbit number at epoch: 53951

The dashed part of the orbit path shows where the satellite is in the earth's shadow,  

DLR